Weather 🌤️

Recent data

Temperatures

Wind

Pressure

Humidity & Precipitation

Last data
obsTime qcStatus tempAvg heatindexAvg windspeedAvg windgustAvg winddirAvg pressureAvg humidityAvg precipRate precipTotal
2026-09-06 12:34:56 1 26.9 27.7 2.2 6.1 197 1000.68 57 0 0
2026-09-06 12:29:56 1 26.8 27.6 1.5 6.1 204 1000.68 57 0 0
2026-09-06 12:24:56 1 26.6 27.4 1 6.1 184 1000.85 57.2 0 0
2026-09-06 12:19:56 1 26.3 26.5 2 6.1 135 1000.85 58 0 0
2026-09-06 12:14:56 1 26.2 26.4 1.9 6.1 180 1000.85 58.1 0 0
2026-09-06 12:09:56 1 25.9 26.1 1.2 6.1 156 1000.85 58.8 0 0
2026-09-06 12:04:51 1 25.8 25.9 1.9 6.1 240 1001.19 59 0 0
2026-09-06 11:59:56 1 25.5 25.7 0.7 6.1 175 1001.19 59.2 0 0
2026-09-06 11:54:56 1 25.2 25.3 2.8 6.1 229 1001.19 60 0 0
2026-09-06 11:49:56 1 24.9 25.1 1.5 6.1 171 1001.19 60 0 0
2026-09-06 11:44:56 1 24.8 24.9 2.8 6.1 132 1001.36 60 0 0
2026-09-06 11:39:56 1 24.8 24.8 2.3 6.1 185 1001.36 60 0 0

Hourly data

Temperatures

Wind

Pressure

Humidity & Precipitation

Last data
obsTime qcStatus tempAvg heatindexAvg windspeedAvg windgustAvg winddirAvg pressureAvg humidityAvg precipRate precipTotal
2026-09-06 11:59:56 1 24.7 24.8 2.1 6 180 1001.53 60.1 0 0
2026-09-06 10:59:56 1 22.8 22.8 1.5 4 196 1002.03 62.8 0 0
2026-09-06 09:59:56 1 21.1 21 1 5.2 206 1002.37 64.6 0 0
2026-09-06 08:59:48 0 20.5 20.5 2.5 5.5 209 1002.54 64.6 0 0
2026-09-06 07:59:56 0 20.6 20.6 0.7 2.6 202 1002.37 63.7 0 0
2026-09-06 06:59:56 0 21.3 21.1 0 0.7 196 1002.2 62.4 0 0
2026-09-06 05:59:56 0 21.9 21.7 0 1.7 195 1002.2 60.6 0 0
2026-09-06 04:59:56 0 22.4 22.3 0.3 2.2 206 1002.2 59.1 0 0
2026-09-06 03:59:56 0 23.1 22.9 0.3 3.9 214 1002.37 57.5 0 0
2026-09-06 02:59:56 0 23.6 23.5 1.6 6.6 220 1002.54 56.1 0 0
2026-09-06 01:59:56 0 24.2 24.1 2.4 6.7 223 1002.54 55.1 0 0
2026-09-06 00:59:56 0 24.6 24.5 2.8 7.8 225 1002.71 54.9 0 0
2026-09-05 23:59:51 0 25.3 25.3 2.9 6.1 227 1002.71 53.4 0 0
2026-09-05 22:59:56 0 26 26 1.7 6 215 1003.05 52.1 0 0
2026-09-05 21:59:49 0 26.6 26.8 1.5 7.2 221 1002.54 50.6 0 0
2026-09-05 20:59:53 0 27.5 27.8 3.7 14 280 1002.03 48.8 0 0
2026-09-05 19:59:57 1 28.5 28.7 6.9 13.6 279 1001.53 46.6 0 0
2026-09-05 18:59:57 1 29.4 29.5 5.1 11.8 280 1001.53 45.1 0 0
2026-09-05 17:59:49 1 29.3 29.4 4.8 11.9 277 1001.36 45 0 0
2026-09-05 16:59:49 1 29.1 29.2 4.4 15.1 249 1001.69 45 0 0
2026-09-05 15:59:57 1 28.7 28.7 5 17.1 255 1002.03 44.4 0 0
2026-09-05 14:59:49 1 28.1 28.1 4.6 11.4 234 1002.37 45.1 0 0
2026-09-05 13:59:49 1 27.1 27.2 3.8 10.4 261 1002.71 46.5 0 0
2026-09-05 12:59:48 1 26.4 26.3 3.4 7.7 230 1003.05 47 0 0